Weather History for Anchorage, AK

Change the Weather History Date:

Wednesday, May 7, 2014

  Actual Average Record
Temperature  
Mean Temperature 52 °F 45 °F  
Max Temperature 59 °F 53 °F 67 °F (1981)
Min Temperature 44 °F 37 °F 22 °F (1921)
Degree Days  
Heating Degree Days 13    
Month to date heating degree days 97  
Since 1 July heating degree days 8810  
Cooling Degree Days 0    
Month to date cooling degree days 0  
Year to date cooling degree days 0  
Moisture  
Dew Point 33 °F    
Average Humidity 53    
Maximum Humidity 62    
Minimum Humidity 43    
Precipitation  
Precipitation 0.00 in 0.02 in 0.26 in (2007)
Month to date precipitation 0.17 0.13  
Year to date precipitation 2.93 2.65  
Snow  
Snow 0.00 in 0.00 in 0.40 in (1985)
Month to date snowfall 0.0 0.2  
Since 1 July snowfall 64.7 74.4  
Snow Depth 0.00 in    
Sea Level Pressure  
Sea Level Pressure 29.77 in    
Wind  
Wind Speed 15 mph (SSE)    
Max Wind Speed 21 mph    
Max Gust Speed 35 mph    
Visibility 10 miles    
Events      
T = Trace of Precipitation, MM = Missing Value Source: NWS Daily Summary

Daily Weather History Graph

Daily Weather History Graph

Search for Another Location

Airport:

Trip Planner

Search our weather history database for the weather conditions in past years. The results will help you decide how hot, cold, wet, or windy it might be!

Date:

Astronomy

May. 07, 2014 Rise Set
Actual Time 5:34 AM AKDT 10:21 PM AKDT
Civil Twilight 4:32 AM AKDT 11:23 PM AKDT
Nautical Twilight 2:29 AM AKDT 1:24 AM AKDT
Astronomical Twilight Sun does not rise Sun does not rise
Moon 1:40 PM AKDT (5/7) 3:38 AM AKDT (5/7)
Length of Visible Light 18h 51m
Length of Day
16h 47m
First Quarter, 57% of the Moon is Illuminated
May 7
First Quarter
May 14
Full
May 21
Last Quarter
May 28
New
Jun 5
First Quarter

Hourly Weather History & Observations

Time (AKDT) Temp. Windchill Dew Point Humidity Pressure Visibility Wind Dir Wind Speed Gust Speed Precip Events Conditions
12:53 AM 46.0 °F 39.0 °F 30.9 °F 56% 29.78 in 10.0 mi SSE 17.3 mph 28.8 mph N/A   Overcast
1:53 AM 46.0 °F 38.5 °F 32.0 °F 58% 29.78 in 10.0 mi SSE 19.6 mph 29.9 mph N/A   Overcast
2:53 AM 46.0 °F 38.3 °F 32.0 °F 58% 29.78 in 10.0 mi SE 20.7 mph 29.9 mph N/A   Overcast
3:53 AM 46.9 °F - 32.0 °F 56% 29.78 in 10.0 mi SE 18.4 mph 25.3 mph N/A   Overcast
4:53 AM 46.0 °F 39.0 °F 32.0 °F 58% 29.78 in 10.0 mi SE 17.3 mph 28.8 mph N/A   Overcast
5:53 AM 45.0 °F 38.2 °F 32.0 °F 60% 29.78 in 10.0 mi SSE 15.0 mph 25.3 mph N/A   Mostly Cloudy
6:53 AM 46.0 °F 39.0 °F 32.0 °F 58% 29.78 in 10.0 mi SE 17.3 mph 27.6 mph N/A   Mostly Cloudy
7:53 AM 46.9 °F - 33.1 °F 59% 29.79 in 10.0 mi SE 15.0 mph 20.7 mph N/A   Mostly Cloudy
8:53 AM 48.0 °F - 34.0 °F 58% 29.80 in 10.0 mi NE 4.6 mph - N/A   Mostly Cloudy
9:53 AM 48.9 °F - 33.1 °F 54% 29.80 in 10.0 mi SE 13.8 mph 19.6 mph N/A   Mostly Cloudy
10:15 AM 50.0 °F - 33.8 °F 54% 29.79 in 10.0 mi SE 10.4 mph - N/A   Mostly Cloudy
10:53 AM 52.0 °F - 34.0 °F 50% 29.80 in 10.0 mi SE 13.8 mph 19.6 mph N/A   Mostly Cloudy
11:53 AM 53.1 °F - 34.0 °F 48% 29.79 in 10.0 mi SSE 13.8 mph 20.7 mph N/A   Mostly Cloudy
12:53 PM 54.0 °F - 34.0 °F 47% 29.78 in 10.0 mi SSE 10.4 mph 19.6 mph N/A   Mostly Cloudy
1:53 PM 55.9 °F - 34.0 °F 44% 29.78 in 10.0 mi South 8.1 mph 17.3 mph N/A   Scattered Clouds
2:53 PM 57.0 °F - 34.0 °F 42% 29.77 in 10.0 mi SSE 8.1 mph - N/A   Scattered Clouds
3:53 PM 57.0 °F - 35.1 °F 44% 29.76 in 10.0 mi SE 8.1 mph 16.1 mph N/A   Scattered Clouds
4:53 PM 57.0 °F - 34.0 °F 42% 29.75 in 10.0 mi South 6.9 mph - N/A   Scattered Clouds
5:53 PM 55.9 °F - 33.1 °F 42% 29.75 in 10.0 mi SSW 4.6 mph - N/A   Scattered Clouds
6:53 PM 57.0 °F - 33.1 °F 40% 29.74 in 10.0 mi WSW 4.6 mph - N/A   Scattered Clouds
7:53 PM 57.0 °F - 32.0 °F 39% 29.74 in 10.0 mi West 5.8 mph - N/A   Scattered Clouds
8:53 PM 54.0 °F - 34.0 °F 47% 29.73 in 10.0 mi West 4.6 mph - N/A   Scattered Clouds
9:53 PM 51.1 °F - 33.1 °F 50% 29.73 in 10.0 mi West 8.1 mph - N/A   Scattered Clouds
10:53 PM 48.2 °F - 35.6 °F 62% 29.74 in 10.0 mi West 9.2 mph - N/A   Scattered Clouds
11:53 PM 48.9 °F - 37.0 °F 64% 29.74 in 10.0 mi Calm Calm - N/A   Scattered Clouds